Location: Linz
(48.3300°N, 14.3000°E)
Time: 02:57:18
(UTC+01:00)

Envisat - Visible Passes

Search period start: 25 November 2017 00:00
Search period end: 05 December 2017 00:00
Orbit: 764 x 766 km, 98.2° (Epoch: 24 November)

Date Brightness Start Highest point End Pass type
(mag) Time Alt. Az. Time Alt. Az. Time Alt. Az.
25 Nov 5.4 19:27:55 12° N 19:27:55 12° N 19:28:21 10° N visible
26 Nov 5.2 18:50:50 12° N 18:50:50 12° N 18:51:19 10° N visible
27 Nov 5.2 18:13:45 10° NNE 18:13:45 10° NNE 18:13:51 10° NNE visible
27 Nov 5.7 19:53:58 10° NNW 19:53:58 10° NNW 19:53:59 10° NNW visible
28 Nov 5.4 19:16:53 12° N 19:16:53 12° N 19:17:10 10° N visible
29 Nov 5.3 18:39:47 11° N 18:39:47 11° N 18:40:02 10° N visible
01 Dec 5.4 19:05:49 11° N 19:05:49 11° N 19:05:58 10° N visible
02 Dec 5.3 18:28:43 10° N 18:28:43 10° N 18:28:43 10° N visible
04 Dec 5.4 18:54:42 10° N 18:54:42 10° N 18:54:44 10° N visible
